Regional Weather Roundup
Issued by NWS Grand Forks, ND

Home | Current Version | Previous Version | Text Only | Print | Product List | Glossary Off
Versions: 1 2 3 4 5 6 7 8 9 10 11 12 13 14 15 16 17 18 19 20 21 22 23 24 25 26 27 28 29 30 31 32 33 34 35 36 37 38 39 40 41 42 43 44 45 46 47 48 49 50

000
ASUS43 KFGF 201910
RWRFGF
PRAIRIE TO PINES  WEATHER ROUNDUP
NATIONAL WEATHER SERVICE EASTERN NORTH DAKOTA/GRAND FORKS ND
200 PM CDT FRI OCT 20 2017

 **SATELLITE DATA USED TO AUGMENT SKY COVER AT AUTOMATED STATIONS**
 *****  WEATHER ACROSS EASTERN NORTH DAKOTA  *****

CITY           SKY/WX    TMP DP  RH WIND       PRES   REMARKS
GRAND FORKS    FAIR      76  52  43 S24G35    29.43F
GRAND FRKS AFB FAIR      74  51  42 S23G30    29.43F
DEVILS LAKE    FAIR      70  50  49 S21       29.36F
FARGO          FAIR      75  52  44 S24G39    29.48F
WAHPETON ARPT  NOT AVBL
$$

 ***** WEATHER ACROSS CENTRAL AND WESTERN NORTH DAKOTA  *****

CITY           SKY/WX    TMP DP  RH WIND       PRES   REMARKS
BISMARCK       FAIR      75  48  38 SE15G22   29.35F
MINOT          FAIR      70  37  29 S12       29.28F
JAMESTOWN      FAIR      71  50  47 S21G36    29.42F
MINOT AFB      FAIR      70  36  28 S14       29.26F
GARRISON         N/A     72  37  28 S14       29.30F
WILLISTON      FAIR      69  37  30 VRB6      29.26F
DICKINSON      FAIR      77  32  19 S9        29.29F
HETTINGER      FAIR      79  32  18 S13       29.34F
$$

 *****  OTHER AIRPORT OBSERVATIONS IN OUR AREA  *****

CITY           SKY/WX    TMP DP  RH WIND       PRES   REMARKS
WALHALLA       FAIR     N/A N/A N/A SE14G24   29.38F
GRAFTON AIRPOR FAIR      73  50  43 S20G29    29.43F
VALLEY CITY AR FAIR      72  52  49 S23G36    29.46F
CANDO          FAIR      70  48  46 SE18      29.37F
CAVALIER APRT  FAIR      72  55  56 S17G23    29.39F
GWINNER        CLEAR     72  52  49 S21G28    29.49F
SHEYENNE NWR     N/A     75  52  44 S21       29.95
ROLLA          FAIR      66  46  48 S18       29.34F
 ***** THE ABOVE OBSERVATIONS ARE NON NWS ARE NOT QUALITY
       CONTROLLED AND MAY MIS-REPORT RAIN FOR SNOW...
$$

  *****  WEATHER ACROSS NORTHERN MINNESOTA  *****

CITY           SKY/WX    TMP DP  RH WIND       PRES   REMARKS
FLAG ISLAND    FAIR      61  48  63 SE8       29.52F
WARROAD        FAIR      75  55  50 SE18      29.52F
ROSEAU         FAIR      79  54  41 S15       29.49F
HALLOCK        FAIR      77  48  36 S24       29.43F
THF RVR FALLS  FAIR      78  50  37 S24G33    29.50F
BAUDETTE       FAIR      78  51  38 S13       29.56F
WASKISH        FAIR      75  48  38 S18G24    29.58F
CROOKSTON      FAIR      75  52  43 S25G37    29.47F
STEPHEN NDAWN    N/A     75  52  43 S20         N/A
GREENBUSH NDAW   N/A     79  50  36 S20         N/A
$$
  *****  WEATHER ACROSS CENTRAL AND WEST MINNESOTA  *****

CITY           SKY/WX    TMP DP  RH WIND       PRES   REMARKS
FOSSTON        FAIR      77  45  31 S26G35    29.53F
BEMIDJI        FAIR      75  49  39 S17G24    29.60F
PARK RAPIDS    FAIR      73  52  47 S21G32    29.63F
ELBOW LAKE     FAIR      71  54  54 S22G30    29.60F
WADENA         FAIR      72  52  49 CALM      29.63F
DETROIT LAKES  FAIR      72  50  46 S23G30    29.58F
MOORHEAD       FAIR      73  52  46 S22G29    29.51F
FERGUS FALLS   FAIR      72  54  53 S24G36    29.57F
MORRIS MN      FAIR      75  54  46 S23G30    29.60F
STAPLES        FAIR      73  48  40 S15G24    29.66F
$$
  *****  WEATHER ELSEWHERE ACROSS MINNESOTA  *****

CITY           SKY/WX    TMP DP  RH WIND       PRES   REMARKS
DULUTH         FAIR      72  50  45 S16       29.77F
INTRNTL FALLS  FAIR      77  47  34 S10G18    29.61F
ELY            FAIR      73  45  35 S10G20    29.72F
CLOQUET        FAIR      72  45  37 S16       29.76F
WHEATON        FAIR      72  50  46 SE21G28   29.57F
BRAINERD       FAIR      71  51  49 S21G30    29.70F
HIBBING        FAIR      72  47  40 S10G23    29.72F
ALEXANDRIA     FAIR      73  52  47 S24G32    29.66F
SAINT CLOUD    FAIR      73  52  47 S20G30    29.73F
MINNEAPOLIS    FAIR      76  51  41 S21G30    29.79F
$$

  *****  WEATHER ACROSS SOUTH DAKOTA  *****

CITY           SKY/WX    TMP DP  RH WIND       PRES   REMARKS
SIOUX FALLS    FAIR      75  57  53 S22G32    29.66F
BROOKINGS      FAIR      71  55  56 S22G35    29.63F
WATERTOWN      FAIR      70  54  56 S23G31    29.58F
HURON          FAIR      75  53  46 S24G35    29.54F
SISSETON         N/A     74  53  48 S26G35    29.53F
ABERDEEN       FAIR      70  52  52 S20G28    29.49F
MITCHELL       FAIR      76  53  44 S25G36    29.58F
PIERRE         FAIR      75  52  44 SE15      29.44F
MOBRIDGE       FAIR      72  50  45 S20       29.37F
RAPID CITY     FAIR      82  36  19 S17G26    29.40F
$$

  *****  SOME WEATHER IN NEARBY STATES *****

CITY           SKY/WX    TMP DP  RH WIND       PRES   REMARKS
GLASGOW MT     FAIR      69  33  26 SE12      29.22F
GREAT FALLS MT FAIR      61  23  23 W16       29.29R
CHEYENNE WY    FAIR      72  31  22 SW22G29   29.64F
SCOTTSBLUFF NE FAIR      76  38  25 SE7       29.53F
OMAHA NE       PTSUNNY   76  57  51 S28G35    29.80F
DES MOINES IA  PTSUNNY   76  54  46 S18G25    29.92F
DAVENPORT IA   FAIR      77  50  38 S10       30.05F
CHICAGO IL     PTSUNNY   77  51  40 S14       30.09F
EAU CLAIRE WI  FAIR      74  47  38 S18G26    29.88F
LA CROSSE WI   FAIR      75  52  44 S16       29.93F
$$

  *****  SOME NATIONAL WEATHER *****

CITY           SKY/WX    TMP DP  RH WIND       PRES   REMARKS
LA GUARDIA NY  FAIR      73  34  23 NW13      30.09F
RALEIGH NC     FAIR      76  47  35 NE9       30.21F
ATLANTA GA     FAIR      79  35  20 NE5       30.22F
NEW ORLEANS LA CLOUDY    81  72  74 E15       30.07F
OKLAHOMA CITY  PTSUNNY   74  57  55 S22G32    29.93F
ALBUQUERQUE NM FAIR      68  45  43 S17G24    29.96F
SALT LAKE CITY CLOUDY    56  32  40 N20G32    29.79R HAZE
LOS ANGELES CA PTSUNNY   70  60  70 W13       29.93F
BOISE ID       CLOUDY    48  35  60 W17G29    29.81S
SEATTLE WA     LGT RAIN  49  46  90 S12       29.75R
$$

*** WEATHER ACROSS MANITOBA...SASKATCHEWAN AND ONTARIO ***
                ***ONTARIO***

CITY           SKY/WX    TMP DP  RH WIND       PRES   REMARKS
GERALDTON      MOSUNNY   66  46  48 S7        29.83F
THUNDER BAY    MOSUNNY   64  52  63 NE9       29.78F
SIOUX LOOKOUT  PTSUNNY   70  48  46 SE12G17   29.64F
TORONTO        MOSUNNY   70  43  37 S10G17    30.18F
BIG TROUT LK   SUNNY     45  34  65 E10G17    29.85F
PICKLE LAKE    MOSUNNY   61  39  44 E14       29.72F
DRYDEN         SUNNY     70  48  46 SE12G17   29.61F
KENORA         PTSUNNY   66  50  55 SE12      29.56F
$$
                *** MANITOBA***

CITY           SKY/WX    TMP DP  RH WIND       PRES   REMARKS
BRANDON        PTSUNNY   64  46  52 SE15G22   29.29F
DAUPHIN        SUNNY     68  43  40 E15       29.26F
ISLAND LAKE    PTSUNNY   45  36  70 E16G23    29.64F
PILOT MOUND      N/A     72  46  40 S23G31      N/A
THE PAS        PTSUNNY   48  37  66 E8G18     29.41F
THOMPSON       CLOUDY    39  34  81 E10G21    29.63F
WINNIPEG       MOSUNNY   72  50  46 S23G31    29.39F
LYNN LAKE      CLOUDY    34  34 100 E17       29.57F WCI  23
CHURCHILL      PTSUNNY   36  27  69 SE20      29.95F
GILLAM         PTSUNNY   39  32  75 E6G18     29.80F
$$
                ***SASKATCHEWAN***

CITY           SKY/WX    TMP DP  RH WIND       PRES   REMARKS
ESTEVAN        PTSUNNY   68  37  32 S6        29.24F
KINDERSLEY     CLOUDY    59  34  38 N5        29.21F
LLOYDMINSTER   CLOUDY    50  37  62 N5        29.22F
PRINCE ALBERT  CLOUDY    50  36  57 E5        29.27F
REGINA         PTSUNNY   72  32  23 SE16      29.18F
YORKTON        SUNNY     72  34  25 SE15G21   29.24F
N. BATTLEFORD  SUNNY     52  36  54 E8        29.23F
LA RONGE       CLOUDY    45  37  76 E10G21    29.34F
SASKATOON      PTSUNNY   52  34  50 N7        29.22F
SWIFT CURRENT  SUNNY     68  28  22 SW5       29.19F
$$
NOTE: THESE ARE AUTOMATED STATIONS WITH LIMITED QUALITY CONTROL
      "FAIR" INDICATES FEW OR NO CLOUDS BELOW 12,000 FEET WITH NO
      SIGNIFICANT WEATHER AND/OR OBSTRUCTIONS TO VISIBILITY.
      SKY/WX - SKY CONDITION AND SIGNIFICANT WEATHER.
      TMP - AIR TEMPERATURE.    DP   - DEWPOINT TEMPERATURE.
      RH  - RELATIVE HUMIDITY.  PRES - PRESSURE.
      HX  - HEAT INDEX.         WCI  - WIND CHILL INDEX.
$




USA.gov is the U.S. government's official web portal to all federal, state and local government web resources and services.